Flag for Germany Weather past 2 weeks in Voerde (Niederrhein), North Rhine-Westphalia, Germany

Now
55 °F

Overcast.


Feels Like: 54 °F
Forecast: 44 / 62 °F
Wind: 6 mph from Northwest

Location: Duesseldorf

Current Time: Sep 22, 2014 at 11:13:53 AM

Latest Report: Sep 22, 2014 at 10:00 AM


Visibility: 8 mi

Pressure: 30.11 "Hg

Humidity: 74%

Dew point: 47 °F

Location of Voerde (Niederrhein)Location

Historic Weather in Voerde (Niederrhein) — Graph

°F

Voerde (Niederrhein) temperature yesterday

Maximum temperature yesterday: 65 °F (at 4:00 PM)
Minimum temperature yesterday: 56 °F (at 10:00 PM)
Average temperature yesterday: 62 °F

Past Weeks' High & Low Weather Summary

 TemperatureHumidityPressure
High76 °F (Sep 17, 5:00 PM)95% (Sep 8, 2:00 AM)30.25 "Hg (Sep 8, 2:00 AM)
Low46 °F (Sep 12, 8:00 AM)48% (Sep 17, 6:00 PM)29.83 "Hg (Sep 18, 8:00 PM)
Average62 °F79%30.04 "Hg
* Reported Sep 7 10:00 AM — Sep 22 10:00 AM, Voerde (Niederrhein), Weather by CustomWeather, © 2014

Note: Actual official high and low records may vary slightly from our data, if they occured in-between our weather recording intervals... More about our weather records

Advertising

Voerde (Niederrhein) weather history for previous 24 hours

 ConditionsComfort  
Time TempWeatherWind HumidityBarometerVisibility
10:00 AM
Sep 22
55 °FOvercast.6 mph74%30.11 "Hg7 mi
9:00 AM54 °FOvercast.5 mph75%30.11 "Hg8 mi
8:00 AM54 °FScattered clouds.3 mph76%30.11 "Hg7 mi
7:00 AM54 °FOvercast.5 mph79%30.11 "Hg9 mi
6:00 AM53 °FOvercast.3 mph84%30.12 "Hg9 mi
5:00 AM52 °FPassing clouds.5 mph88%30.12 "Hg9 mi
4:00 AM54 °FPassing clouds.3 mph90%30.12 "Hg9 mi
3:00 AM54 °FPassing clouds.3 mph90%30.14 "Hg9 mi
2:00 AM55 °FOvercast.3 mph89%30.14 "Hg12 mi
1:00 AM55 °FPassing clouds.3 mph85%30.13 "Hg9 mi
12:00 AM54 °FPassing clouds.3 mph84%30.13 "Hg9 mi
10:00 PM
Sep 21
56 °FPassing clouds.3 mph78%30.11 "Hg12 mi
9:00 PM57 °FPassing clouds.3 mph76%30.10 "Hg12 mi
8:00 PM59 °FPassing clouds.6 mph67%30.09 "Hg17 mi
7:00 PM61 °FPartly sunny.6 mph64%30.06 "Hg22 mi
6:00 PM63 °FPassing clouds.6 mph56%30.05 "Hg22 mi
5:00 PM64 °FScattered clouds.7 mph54%30.04 "Hg22 mi
4:00 PM65 °FScattered clouds.6 mph55%30.03 "Hg22 mi
3:00 PM64 °FPartly sunny.6 mph62%30.03 "Hg22 mi
2:00 PM64 °FPartly sunny.6 mph67%30.03 "Hg11 mi
1:00 PM64 °FOvercast.8 mph72%30.03 "Hg12 mi
12:00 PM62 °FPartly sunny.6 mph80%30.02 "Hg9 mi
Weather by CustomWeather, © 2014

See weather overviewHow to use our weather pages